User: anonymous   Login
Location: Unspecified
(0.0000°N, 0.0000°E)
Time: 12:37:32
(UTC+00:00)
Language:

GALASSIA - Orbit

View from above orbital plane
View from above orbital plane
View from above satellite
View from above satellite

Ground track
Ground track

The orbit data is extracted from the following two-line orbital elements,

1 41170U 15077E   18172.11025052  .00001696  00000-0  55126-4 0  9993
2 41170  14.9898 346.1436 0013069 116.5991 243.5670 15.13177983139029
Epoch (UTC): 21 June 2018 02:38:45
Eccentricity: 0.0013069
inclination: 14.9898°
perigee height: 517 km
apogee height: 535 km
right ascension of ascending node: 346.1436°
argument of perigee: 116.5991°
revolutions per day: 15.13177983
mean anomaly at epoch: 243.5670°
orbit number at epoch: 13902

The dashed part of the orbit path shows where the satellite is in the earth's shadow,  

DLR